Weather History for KRVS - March, 2014

Change the Weather History Date:

Tuesday, March 25, 2014

  Actual Average (KTUL) Record (KTUL)
Temperature  
Mean Temperature 40 °F 54 °F  
Max Temperature 53 °F 65 °F 88 °F (1910)
Min Temperature 28 °F 43 °F 18 °F (1955)
Degree Days  
Heating Degree Days 25 12  
Month to date heating degree days 374  
Since 1 July heating degree days 3285  
Cooling Degree Days 0 1  
Month to date cooling degree days 4  
Year to date cooling degree days 5  
Moisture  
Dew Point 25 °F    
Average Humidity 57    
Maximum Humidity 92    
Minimum Humidity 31    
Precipitation  
Precipitation 0.00 in 0.11 in 3.18 in (1920)
Month to date precipitation 2.60  
Year to date precipitation 6.11  
Sea Level Pressure  
Sea Level Pressure 30.35 in    
Wind  
Wind Speed 5 mph (NE)    
Max Wind Speed 16 mph    
Max Gust Speed 23 mph    
Visibility 9 miles    
Events      
T = Trace of Precipitation, MM = Missing Value Source: NWS Daily Summary

Daily Weather History Graph

Daily Weather History Graph

Search for Another Location

Airport or City:

Trip Planner

Search our weather history database for the weather conditions in past years. The results will help you decide how hot, cold, wet, or windy it might be!

Date:

Astronomy

Mar. 25, 2014 Rise Set
Actual Time 7:20 AM CDT 7:39 PM CDT
Civil Twilight 6:54 AM CDT 8:05 PM CDT
Nautical Twilight 6:24 AM CDT 8:35 PM CDT
Astronomical Twilight 5:54 AM CDT 9:06 PM CDT
Moon 3:33 AM CDT (3/25) 2:20 PM CDT (3/25)
Length of Visible Light 13h 11m
Length of Day
12h 19m
Waning Crescent, 32% of the Moon is Illuminated
Mar 25
Waning Crescent
Mar 30
New
Apr 7
First Quarter
Apr 15
Full
Apr 22
Last Quarter

Hourly Weather History & Observations

Time (CDT) Temp. Windchill Dew Point Humidity Pressure Visibility Wind Dir Wind Speed Gust Speed Precip Events Conditions
12:53 AM 36.0 °F 32.1 °F 30.9 °F 82% 30.31 in 10.0 mi North 4.6 mph - N/A   Clear
1:53 AM 32.0 °F 28.7 °F 28.9 °F 88% 30.31 in 8.0 mi North 3.5 mph - N/A   Clear
2:53 AM 30.9 °F - 28.0 °F 89% 30.30 in 5.0 mi Calm Calm - N/A   Clear
3:53 AM 30.0 °F - 28.0 °F 92% 30.31 in 5.0 mi Calm Calm - N/A   Clear
4:53 AM 28.9 °F - 27.0 °F 92% 30.33 in 5.0 mi Calm Calm - N/A   Clear
5:53 AM 30.9 °F - 28.0 °F 89% 30.36 in 7.0 mi Calm Calm - N/A   Clear
6:53 AM 32.0 °F - 30.0 °F 92% 30.39 in 8.0 mi Calm Calm - N/A   Clear
7:53 AM 30.0 °F - 28.0 °F 92% 30.42 in 6.0 mi Calm Calm - N/A   Clear
8:53 AM 37.9 °F 34.4 °F 30.0 °F 73% 30.44 in 10.0 mi NNW 4.6 mph - N/A   Clear
9:53 AM 43.0 °F 36.8 °F 26.1 °F 51% 30.45 in 10.0 mi NNE 11.5 mph - N/A   Clear
10:53 AM 45.0 °F 37.9 °F 25.0 °F 46% 30.47 in 10.0 mi NNE 16.1 mph 20.7 mph N/A   Clear
11:53 AM 48.0 °F - 25.0 °F 41% 30.46 in 10.0 mi NNE 15.0 mph - N/A   Clear
12:53 PM 48.0 °F - 21.9 °F 36% 30.45 in 10.0 mi North 10.4 mph 23.0 mph N/A   Clear
1:53 PM 48.9 °F - 21.9 °F 35% 30.42 in 10.0 mi North 6.9 mph - N/A   Clear
2:53 PM 52.0 °F - 24.1 °F 34% 30.38 in 10.0 mi NNE 12.7 mph 18.4 mph N/A   Clear
3:53 PM 52.0 °F - 24.1 °F 34% 30.35 in 10.0 mi NE 4.6 mph - N/A   Clear
4:53 PM 52.0 °F - 21.9 °F 31% 30.33 in 10.0 mi Variable 3.5 mph - N/A   Clear
5:53 PM 51.1 °F - 21.9 °F 32% 30.30 in 10.0 mi ENE 6.9 mph - N/A   Clear
6:53 PM 50.0 °F - 21.0 °F 32% 30.30 in 10.0 mi ESE 4.6 mph - N/A   Clear
7:53 PM 48.0 °F - 21.9 °F 36% 30.28 in 10.0 mi SE 5.8 mph - N/A   Clear
8:53 PM 44.1 °F 40.1 °F 23.0 °F 43% 30.28 in 10.0 mi ESE 6.9 mph - N/A   Clear
9:53 PM 42.1 °F 37.7 °F 21.9 °F 45% 30.29 in 10.0 mi ESE 6.9 mph - N/A   Clear
10:53 PM 42.1 °F 40.2 °F 21.0 °F 43% 30.28 in 10.0 mi ESE 3.5 mph - N/A   Clear
11:53 PM 39.0 °F 36.8 °F 21.9 °F 50% 30.27 in 10.0 mi SE 3.5 mph - N/A   Clear